THORAD DELTA 1 DEB, 8182

Orbit data source: Space-Track

THORAD DELTA 1 DEB, 8182 is space debris in SSO originally from a launch on Fri, 15 Nov 1974 UTC launched from the Air Force Western Test Range (AFWTR). Debris objects in space refer to the collection of defunct objects orbiting the Earth. Examples of debris include non-operational satellites, rocket bodies, and fragments generated from explosions, collisions, or faulty payload assembly.

Loading next visibility...
Identifier
8182, 1974-089AY
Orbit
SSO
Country
Flag of USUS
Related business
Manufacturer
Unknown
Mission
Spacecraft
Bus & Motor
Unknown
Mass
Unknown
Launch date (UTC)
1974-11-15 (51 years ago)
Launch vehicle
Unknown
Launch site
Air Force Western Test Range (AFWTR)
Object type
Payload
Rocket body
Debris
Shape & HBR
Unknown shape, 0.1 m
Radar Cross Section
Small (<0.1 m²)

Expand to show TLE details & history
Last TLE update: 2 days ago

TLE from 2 days ago
0 THORAD DELTA 1 DEB
1 08182U 74089AY  25352.69023367  .00000664  00000-0  29169-2 0  9995
2 08182 100.3580  77.4391 0141201 138.3067  19.1405 12.81081335343446
Epoch: 2025-12-18T16:33Z
TLE epoch observation values (Epoch: 2025-12-18T16:33:56.189Z)
Latitude
21.64935°
Longitude
-74.44783°
Altitude
1,236.788 km
Speed
7.286 km/s
True Right ascension
17h 26m 18s
True Declination
21° 32' 21"
Sunlit
Object was in daylight at epoch
Visualization orbit readout
Latitude
Unknown
Longitude
Unknown
Altitude
Unknown
Speed
Unknown
Apparent Right ascension
Unknown
Apparent Declination
Unknown
Sunlit
N/A
Visualization observer readout
Local Sidereal Time
07:01:16
Azimuth
Unknown
Elevation
Unknown
Doppler factor
Unknown
Orbital elements
Apogee altitude
1,443.457 km
Perigee altitude
1,225.649 km
Semi-major axis
7,712.69 km
Eccentricity
0.01412
Inclination
100.358°
RAAN
77.4391°
Arg. of periapsis
138.3067°
True anomaly
19.68002°
Mean anomaly
19.1405°
Eccentric anomaly
19.40935°
Mean motion
3.20431 °/min
Orbital period
112.35 mins
BSTAR
0.0029169
Loading maneuver chart data...
Computing Atmospheric mass density...

Documentation

Showing up to 5 results
|